Location: Alameda
(35.1867°N, 106.6181°W)
Time: 15:30:54
(UTC+00:00)

Daily predictions for brighter satellites

Satellite Brightness Start Highest point End
(mag) Time Altitude Azimuth Time Altitude Azimuth Time Altitude Azimuth
ADEOS 4.5 12:02:07 10° N 12:06:33 29° WNW 12:10:54 10° SW
USA 238 DEB 3.6 12:00:22 10° SW 12:06:58 73° WNW 12:13:47 10° NNE
USA 238 3.6 12:00:29 10° SW 12:07:04 74° WNW 12:13:54 10° NNE
Nadezhda 4 Rocket 4.0 12:01:06 10° S 12:07:22 83° W 12:13:44 10° N
CZ-2C R/B 3.2 12:04:35 10° NNW 12:08:31 28° WNW 12:12:23 10° SW
ATLAS 3B R/B 4.4 12:03:45 10° S 12:09:35 32° ESE 12:15:20 10° NE
Cosmos 2279 Rocket 4.2 12:05:34 10° NNW 12:11:29 47° W 12:17:23 10° SSW
Cosmos 2227 Rocket 2.4 12:08:06 10° SW 12:13:34 52° WNW 12:19:05 10° N
STARLINK-1032 4.4 12:10:41 10° SSW 12:14:41 51° SE 12:18:42 10° NE
Cosmos 1300 Rocket 3.8 12:10:47 10° N 12:15:06 73° E 12:19:23 10° SSE
Cosmos 389 Rocket 2.7 12:13:06 10° SSW 12:16:38 52° W 12:20:09 10° N
Meteor 1-31 Rocket 3.5 12:15:24 10° N 12:19:00 35° WNW 12:22:35 10° SW
STARLINK-1011 4.2 12:15:36 10° SSW 12:19:39 57° SE 12:23:43 10° NE
USA 234 4.5 12:18:14 10° SSW 12:22:30 18° WSW 12:26:46 10° W
Cosmos 2219 Rocket 3.3 12:19:52 10° NW 12:23:49 20° W 12:27:46 10° SW
ALOS 2.2 12:19:42 10° N 12:24:22 73° WNW 12:29:01 10° SSW
STARLINK-1036 4.0 12:20:31 10° SW 12:24:37 64° SE 12:28:42 10° NE
ATLAS 5 CENTAUR R/B 2.0 12:17:58 10° SW 12:25:02 88° WNW 12:27:40 10° NE
STARLINK-1027 3.9 12:20:57 10° SW 12:25:10 72° SE 12:29:24 10° NE
Cosmos 1378 Rocket 4.3 12:22:38 10° S 12:26:51 57° E 12:31:06 10° NNE
STARLINK-1044 3.9 12:25:28 10° SW 12:29:34 72° SE 12:33:42 10° NE
NOSS 0 Rocket 4.3 12:24:20 10° NW 12:30:01 40° WSW 12:35:39 10° S
Cosmos 1980 3.9 12:26:03 10° NNW 12:31:32 51° WSW 12:36:57 10° S
ADEOS Rocket 4.3 12:26:22 10° SSE 12:33:55 62° ENE 12:41:32 10° N
STARLINK-1047 3.7 12:30:25 10° SW 12:34:32 81° SE 12:38:41 10° NE
Chandra Rocket (1) 3.7 12:25:18 10° WSW 12:35:23 40° S 12:39:04 10° ESE
Cosmos 1048 Rocket 4.0 12:32:05 10° NNW 12:37:23 72° WSW 12:42:42 10° S
